User: anonymous
Location: Unspecified
(0.0000°N, 0.0000°E)
Time: 07:01:02
(UTC+02:00)
Language:

DELTA 2 R/B (1) - Orbit

View from above orbital plane
View from above orbital plane
View from above satellite
View from above satellite

Ground track
Ground track

The orbit data is extracted from the following two-line orbital elements,

1 27665U 03005C   14209.77574994  .00000137  00000-0  88309-4 0   761
2 27665 039.5761 078.4217 0010372 253.4939 147.5146 14.28203821600135
Epoch (UTC): 28 July 2014 18:37:04
Eccentricity: 0.0010372
inclination: 39.5761°
perigee height: 790 km
apogee height: 805 km
right ascension of ascending node: 78.4217°
argument of perigee: 253.4939°
revolutions per day: 14.28203821
mean anomaly at epoch: 147.5146°
orbit number at epoch: 60013

The dashed part of the orbit path shows where the satellite is in the earth's shadow,  

DLR